Wind_Speed
6 5 4 4 4 5 5 5 6 6 6 6 6 5 5 4 4 4 4 3 3 4 5 6 7 7 7 7 7 8 8 9 9 10 10 10 11 11 11 11 11 11 11 11 11 12 12 12 12
7 6 6 6 5 5 5 5 5 5 6 6 5 5 4 4 3 4 4 4 4 5 5 6 7 7 8 8 7 7 8 9 10 10 11 11 11 12 12 11 12 12 11 11 11 12 12 12 12
9 7 7 6 6 5 5 5 5 6 5 5 4 4 3 3 3 4 4 5 5 5 6 7 8 7 7 7 7 8 9 9 10 11 11 11 12 12 12 12 12 12 12 12 12 12 12 13 13
11 10 8 7 7 6 6 5 5 5 5 3 3 3 3 3 3 4 4 5 5 6 7 8 7 7 7 7 7 8 9 10 11 11 12 12 12 12 12 12 12 12 13 13 13 13 13 13 13
13 12 10 9 8 7 7 6 5 5 4 3 3 2 2 3 4 4 5 5 6 7 8 8 7 7 7 8 8 9 10 10 11 12 13 13 13 13 13 13 13 14 14 14 14 13 13 13 14
13 12 11 10 9 8 8 7 6 5 4 4 3 2 2 4 4 5 6 7 7 7 7 7 8 7 7 8 8 9 10 11 12 13 13 13 13 13 14 14 15 15 15 15 15 15 14 14 14
14 13 13 11 10 8 7 6 6 5 4 3 3 2 3 4 4 5 6 7 8 8 7 7 7 7 7 8 8 9 10 11 13 14 14 14 14 14 15 15 16 16 16 16 16 15 15 15 14
14 15 14 11 11 9 8 6 5 5 5 4 4 3 4 4 4 6 7 8 8 8 8 7 7 7 7 8 9 10 11 12 13 14 14 14 14 15 16 16 16 16 16 16 16 15 15 15 15
15 15 14 13 11 10 8 7 5 5 5 4 4 4 5 5 6 7 7 8 8 8 8 8 8 7 7 8 10 11 12 13 13 14 14 15 15 16 16 17 17 17 16 16 15 15 15 15 15
17 15 13 13 11 10 8 6 6 5 5 4 4 5 6 6 7 7 8 8 8 8 8 8 8 8 8 9 10 11 12 13 13 14 14 15 16 16 17 17 17 17 17 17 16 16 16 15 15
18 15 13 14 12 9 8 7 6 5 5 5 5 6 6 6 6 7 8 8 7 8 8 8 8 8 8 9 11 11 12 13 14 14 15 16 16 17 17 17 17 18 18 17 17 17 16 16 15
19 16 14 14 12 10 9 8 7 7 6 6 6 5 6 6 7 8 8 8 8 8 9 9 8 8 9 10 11 12 12 13 14 15 15 16 17 17 17 18 18 18 18 18 18 18 17 16 15
19 16 14 13 12 11 9 9 8 7 7 6 6 5 5 6 8 8 8 8 8 8 8 8 8 8 9 11 12 12 13 13 14 14 15 16 16 17 18 18 19 19 19 19 19 18 17 16 14
18 17 15 14 12 11 10 9 8 7 6 6 6 6 6 7 8 8 8 8 8 8 8 8 8 9 10 11 12 13 13 13 14 14 15 16 16 17 18 19 19 20 20 20 19 18 17 16 14
18 16 15 14 12 10 10 9 8 6 6 5 5 6 6 7 7 7 8 8 8 8 8 8 8 9 10 11 12 13 13 14 14 15 15 16 17 18 19 19 20 20 20 20 19 18 17 16 14
17 17 16 14 12 11 9 8 7 6 4 4 4 4 5 6 7 7 7 8 8 9 9 9 9 10 11 12 12 12 13 14 15 15 16 16 17 18 19 20 21 21 21 20 19 18 17 16 13
19 17 16 15 13 11 10 8 7 5 4 3 4 4 5 6 6 7 7 8 9 9 9 9 9 10 10 11 12 13 13 14 15 15 16 17 17 18 19 20 21 22 21 20 19 18 17 15 13
19 16 14 13 12 11 10 8 6 5 4 3 3 4 5 6 6 7 7 8 8 9 9 9 9 10 11 11 12 13 14 14 15 16 16 17 17 18 19 20 21 22 21 21 20 19 17 15 13
19 16 13 10 10 10 9 7 6 5 4 3 3 4 5 6 7 7 7 8 8 8 8 9 10 10 11 12 12 13 14 14 15 15 16 17 17 18 19 20 21 22 21 21 20 20 18 15 13
16 15 13 11 9 9 8 7 5 4 3 3 3 4 5 5 6 6 7 7 7 8 8 9 10 10 11 11 12 13 14 14 15 15 16 17 17 18 19 20 21 21 22 21 21 20 18 15 13
18 16 13 11 9 9 8 6 5 3 2 3 3 4 4 5 6 6 6 6 7 8 8 9 10 10 11 11 12 12 13 14 15 15 16 17 18 18 19 19 20 21 21 21 21 20 18 15 13
17 16 14 12 11 9 7 5 4 3 3 3 3 4 5 5 5 5 6 6 7 8 9 9 10 10 11 11 12 12 13 14 14 15 16 16 17 18 18 19 20 20 21 20 20 19 18 16 14
17 15 14 13 12 10 7 5 4 3 4 3 4 5 5 5 5 6 6 6 7 8 8 9 10 10 11 11 12 12 13 13 14 15 15 16 17 18 18 19 19 20 20 20 19 19 18 16 14
17 15 14 13 12 10 8 7 6 5 5 5 5 6 6 6 6 6 6 6 6 7 8 9 10 10 11 11 12 12 13 14 15 15 15 16 17 17 18 19 19 19 20 19 19 18 17 16 15
17 17 15 14 14 11 9 9 9 7 6 6 6 6 5 5 5 5 5 5 6 6 7 8 9 10 11 12 12 13 14 14 15 15 16 16 17 17 17 18 19 19 20 19 19 18 17 16 15
17 17 15 13 12 10 9 11 9 8 7 6 6 5 5 5 5 5 4 5 5 6 7 8 9 10 11 12 13 14 14 14 15 16 16 17 17 17 18 18 19 20 20 19 19 18 17 16 14
18 16 15 15 13 11 11 11 9 9 8 7 6 5 5 5 4 4 4 4 5 6 7 8 9 10 11 12 13 14 14 15 15 16 17 17 18 18 18 18 19 19 20 20 20 19 18 16 14
17 16 14 12 13 12 10 9 9 8 8 7 6 5 5 4 4 4 4 4 5 6 7 8 9 10 11 12 13 14 14 15 16 16 17 18 18 18 19 19 19 19 20 20 20 20 19 17 15
15 14 13 12 11 11 10 10 8 8 8 7 6 5 4 4 4 4 4 5 6 7 7 8 9 11 12 13 13 14 15 16 17 17 18 19 19 20 20 20 20 20 20 20 21 20 20 19 17
16 17 16 13 12 11 10 11 10 9 8 8 7 6 5 4 4 5 5 6 7 8 8 9 10 11 12 13 14 15 16 17 17 18 18 19 20 21 21 21 21 21 21 21 21 21 21 20 18
Wind_Direction
209 212 207 207 211 196 199 201 197 200 199 207 216 223 221 237 255 269 284 293 296 305 314 321 325 326 329 334 336 337 338 339 338 337 336 332 330 327 323 319 316 312 308 305 300 295 288 280 270
212 211 208 207 210 203 198 201 194 199 203 210 221 224 224 244 265 278 282 292 298 303 310 319 322 323 328 332 335 335 336 338 338 337 337 335 332 329 326 322 318 315 311 307 305 302 294 286 277
210 206 202 208 209 207 202 196 191 195 198 205 217 220 233 250 275 281 290 297 299 303 309 317 324 326 330 331 333 335 337 338 338 338 337 335 334 333 330 327 324 322 318 312 307 302 297 290 284
212 209 206 211 203 205 200 186 192 192 185 194 209 219 243 261 279 289 297 299 302 306 310 316 321 326 329 330 331 335 340 340 341 340 337 335 334 334 333 331 328 326 322 318 311 305 299 293 289
214 210 209 212 200 204 196 186 182 183 193 212 214 224 250 270 281 287 300 301 304 307 312 316 317 321 326 331 333 337 341 341 342 339 337 336 336 335 332 330 328 324 321 318 313 308 303 296 290
214 213 212 207 205 203 191 188 190 194 205 217 206 233 269 275 281 289 299 302 306 309 315 317 317 321 326 330 334 338 340 340 340 339 337 336 336 335 333 330 326 323 321 317 313 308 304 299 291
210 207 208 204 209 205 190 193 204 200 206 224 227 245 278 281 283 291 304 310 312 314 316 318 322 325 328 331 336 338 339 338 339 338 337 337 337 335 333 330 328 324 321 318 313 309 305 301 294
210 212 209 205 202 200 193 201 210 210 222 240 256 270 282 287 294 301 307 311 313 316 318 321 324 326 327 332 338 338 338 338 338 338 338 337 336 334 332 330 328 326 323 320 315 311 306 301 296
212 215 211 206 202 196 197 208 217 218 229 252 270 278 283 289 299 306 311 313 315 318 321 324 324 325 329 334 336 338 339 339 339 339 338 337 335 334 333 331 329 328 326 323 319 314 309 303 298
211 209 206 205 203 192 197 209 220 227 241 256 272 281 285 289 295 303 313 315 315 317 323 326 326 327 331 334 335 338 339 338 338 337 336 337 337 337 336 334 333 330 328 325 322 317 311 305 298
207 209 208 206 198 198 207 213 220 233 248 255 270 284 289 288 294 303 310 312 314 317 324 327 327 326 329 333 335 338 339 339 337 336 337 338 339 339 339 337 334 332 329 325 322 319 314 307 298
202 203 204 207 204 208 216 221 225 232 249 261 276 287 298 302 306 310 314 317 318 321 326 328 328 327 331 334 336 338 339 339 338 338 338 340 340 341 340 339 336 334 332 327 323 320 316 311 303
202 203 206 209 208 212 220 223 230 241 252 266 278 288 299 303 306 311 316 318 319 323 324 323 324 326 330 333 335 337 338 338 339 340 340 341 342 343 343 341 340 338 337 333 328 324 319 314 305
200 204 207 209 212 215 220 224 232 242 253 262 273 285 296 302 308 316 321 323 326 327 326 324 322 323 327 332 334 335 336 338 340 340 340 342 343 344 345 344 343 341 339 336 332 328 323 316 309
198 201 203 206 208 210 219 224 235 244 253 266 272 280 292 305 313 321 324 327 330 330 330 326 326 325 327 330 332 334 335 337 338 339 339 340 343 345 345 346 345 344 342 340 336 333 328 321 314
197 198 201 204 210 215 220 226 231 239 250 263 269 283 298 309 317 323 326 329 331 332 332 331 328 327 328 330 332 334 335 337 338 339 338 340 343 345 346 347 347 347 345 343 340 337 332 327 320
189 193 200 204 210 213 223 225 226 230 240 260 276 292 307 316 323 325 330 331 331 328 329 331 329 330 330 330 332 335 336 337 338 338 338 340 343 344 346 348 349 349 347 346 344 341 337 332 325
187 191 198 200 201 210 217 221 226 231 239 253 274 300 310 318 325 326 326 329 330 329 330 331 333 331 331 332 334 335 336 337 337 338 339 341 343 344 346 348 349 349 349 348 346 344 341 336 329
186 188 193 193 194 202 208 212 215 226 248 256 287 303 317 324 327 327 326 327 328 330 331 332 334 332 331 333 334 335 337 338 338 338 340 342 343 344 346 348 350 352 352 351 349 347 345 341 334
181 183 187 189 187 191 197 207 213 219 244 257 277 303 328 329 326 327 328 329 331 334 334 335 337 336 335 334 334 334 337 338 339 339 341 342 342 343 345 347 349 352 352 352 352 351 350 347 344
188 184 180 180 182 186 190 193 195 202 236 255 284 309 315 316 322 325 326 330 333 335 336 337 339 338 337 335 334 335 337 339 340 340 341 342 343 343 345 347 348 350 352 353 353 354 355 354 352
184 184 185 180 173 168 177 177 182 231 251 257 281 299 305 308 315 324 328 329 330 332 336 339 340 338 337 336 335 335 336 337 340 341 343 344 345 346 346 348 349 350 352 354 355 356 357 357 356
181 174 173 166 162 160 174 188 197 231 246 268 289 299 310 317 323 331 329 329 329 332 337 340 340 340 338 337 335 335 336 337 339 340 340 342 344 346 347 349 350 352 353 355 357 359 360 359 358
177 170 162 161 157 169 179 203 217 229 255 274 290 299 310 321 330 331 329 329 332 335 338 341 342 341 339 339 338 338 338 338 339 339 340 341 342 344 347 349 351 353 355 356 357 359 360 359 358
171 162 159 166 172 182 188 212 228 245 265 276 287 294 306 318 326 329 334 333 335 338 340 342 342 342 340 339 338 337 337 338 339 339 340 340 340 342 345 348 349 351 354 355 356 356 358 357 356
163 163 167 173 181 187 198 220 237 252 259 270 285 298 309 319 327 334 338 340 339 340 343 344 345 344 343 340 338 337 337 337 337 338 338 339 339 339 340 343 346 348 350 352 352 352 353 353 351
167 177 179 179 184 191 211 233 246 252 260 271 285 295 306 317 328 340 345 343 341 342 344 345 346 347 347 345 344 342 340 339 338 338 337 337 338 337 337 339 341 343 345 347 347 346 346 346 345
176 179 177 175 174 188 215 245 249 246 260 272 281 290 301 310 326 337 340 341 342 343 344 345 345 347 348 348 347 346 343 340 338 337 337 337 336 336 336 336 337 338 339 340 341 341 340 338 337
189 184 182 176 181 196 214 234 252 259 261 269 278 288 299 307 314 315 319 327 331 334 336 339 340 342 343 344 344 343 341 338 337 336 336 335 334 333 332 332 332 332 333 333 334 334 334 332 329
189 188 188 188 189 201 223 237 249 256 260 267 274 282 288 293 299 303 312 321 326 327 329 331 333 334 335 336 337 337 336 336 335 334 334 334 334 332 331 329 328 328 327 327 327 327 327 327 325
Height
5868 5869 5870 5872 5873 5873 5873 5874 5875 5876 5877 5878 5879 5880 5881 5882 5884 5886 5884 5883 5884 5884 5883 5883 5882 5881 5881 5880 5879 5879 5878 5877 5876 5874 5873 5872 5871 5870 5868 5867 5866 5865 5864 5863 5863 5862 5861 5861 5861
5868 5869 5871 5871 5871 5872 5874 5874 5875 5876 5877 5878 5879 5880 5881 5882 5883 5883 5882 5883 5883 5883 5883 5882 5882 5881 5880 5879 5879 5878 5877 5876 5875 5874 5872 5871 5870 5868 5867 5866 5865 5863 5862 5861 5861 5860 5859 5859 5859
5867 5868 5870 5871 5871 5872 5873 5874 5875 5876 5877 5878 5879 5880 5881 5882 5882 5882 5882 5882 5883 5883 5882 5882 5881 5880 5880 5879 5878 5877 5877 5875 5874 5873 5872 5870 5869 5867 5866 5864 5863 5862 5861 5860 5859 5858 5858 5857 5857
5866 5868 5869 5870 5870 5872 5873 5874 5875 5876 5877 5878 5879 5880 5880 5881 5882 5882 5882 5882 5882 5882 5882 5881 5881 5880 5879 5879 5878 5877 5876 5875 5874 5872 5871 5869 5868 5866 5865 5863 5862 5861 5859 5858 5857 5856 5855 5855 5854
5864 5866 5868 5869 5869 5871 5872 5874 5875 5876 5877 5878 5879 5880 5880 5881 5881 5882 5882 5882 5882 5882 5881 5881 5880 5880 5879 5878 5877 5877 5875 5874 5873 5872 5870 5868 5867 5865 5863 5862 5860 5859 5858 5856 5855 5854 5853 5852 5852
5863 5864 5866 5867 5868 5870 5872 5873 5875 5876 5877 5878 5879 5880 5880 5881 5881 5881 5881 5881 5881 5881 5881 5880 5880 5879 5878 5878 5877 5876 5875 5874 5872 5871 5869 5867 5865 5864 5862 5860 5859 5857 5855 5854 5853 5851 5850 5850 5849
5862 5863 5864 5866 5867 5869 5871 5873 5875 5876 5877 5878 5879 5880 5880 5880 5881 5881 5881 5880 5880 5880 5880 5879 5879 5878 5878 5877 5876 5875 5874 5873 5871 5869 5868 5866 5864 5862 5860 5859 5857 5855 5853 5851 5850 5848 5847 5847 5846
5860 5863 5863 5864 5866 5868 5871 5872 5874 5875 5876 5877 5878 5879 5880 5880 5880 5880 5880 5880 5879 5879 5879 5878 5878 5877 5877 5876 5875 5874 5873 5872 5870 5868 5866 5865 5863 5861 5859 5857 5855 5853 5851 5849 5847 5846 5844 5843 5843
5859 5862 5862 5864 5865 5867 5870 5872 5874 5875 5876 5877 5878 5878 5879 5879 5879 5879 5879 5879 5879 5878 5878 5878 5877 5876 5876 5875 5874 5873 5872 5870 5869 5867 5865 5863 5862 5859 5857 5855 5853 5850 5848 5846 5844 5843 5841 5840 5839
5856 5859 5861 5863 5865 5867 5870 5871 5873 5875 5876 5877 5877 5877 5878 5878 5878 5878 5878 5878 5878 5878 5877 5876 5876 5875 5875 5874 5874 5872 5871 5869 5868 5866 5864 5862 5860 5858 5856 5853 5850 5848 5846 5844 5842 5840 5838 5837 5836
5854 5857 5860 5862 5864 5867 5869 5871 5872 5874 5875 5876 5877 5877 5877 5877 5877 5877 5877 5877 5877 5877 5876 5875 5875 5874 5874 5873 5872 5871 5870 5868 5867 5865 5863 5861 5859 5856 5854 5852 5849 5846 5844 5841 5839 5837 5835 5833 5832
5852 5856 5858 5861 5863 5866 5869 5870 5872 5873 5875 5875 5876 5876 5877 5877 5876 5876 5876 5876 5876 5875 5875 5874 5874 5873 5873 5872 5871 5870 5868 5867 5865 5863 5862 5860 5857 5855 5853 5850 5847 5844 5842 5839 5836 5834 5832 5830 5828
5851 5854 5857 5861 5863 5866 5868 5870 5871 5872 5874 5874 5875 5875 5876 5876 5876 5875 5875 5875 5875 5874 5874 5873 5873 5872 5871 5870 5870 5869 5867 5865 5864 5862 5860 5858 5856 5854 5851 5848 5845 5842 5839 5836 5834 5831 5829 5826 5825
5850 5853 5857 5860 5863 5865 5867 5869 5871 5872 5873 5874 5874 5875 5875 5875 5875 5875 5874 5874 5874 5873 5873 5872 5872 5871 5870 5870 5869 5867 5866 5864 5863 5861 5859 5857 5855 5852 5850 5847 5843 5840 5837 5834 5831 5828 5825 5823 5822
5848 5852 5856 5859 5862 5865 5867 5868 5870 5871 5872 5873 5873 5874 5874 5874 5874 5874 5873 5873 5873 5872 5872 5871 5871 5870 5869 5868 5867 5866 5865 5863 5862 5860 5858 5856 5854 5851 5848 5845 5842 5838 5835 5831 5828 5825 5823 5820 5819
5847 5851 5855 5859 5861 5864 5867 5868 5869 5870 5871 5872 5872 5873 5873 5873 5873 5873 5873 5872 5872 5871 5871 5870 5869 5869 5868 5867 5866 5865 5864 5862 5861 5859 5857 5855 5852 5850 5847 5844 5840 5837 5833 5829 5826 5823 5820 5818 5816
5846 5850 5854 5858 5861 5863 5865 5866 5868 5869 5871 5871 5872 5872 5872 5872 5872 5872 5872 5871 5871 5870 5869 5869 5868 5867 5867 5866 5865 5864 5862 5861 5859 5858 5856 5854 5851 5849 5846 5843 5839 5835 5832 5828 5824 5821 5818 5815 5813
5846 5849 5853 5857 5860 5862 5864 5865 5867 5869 5870 5870 5871 5871 5871 5871 5871 5871 5870 5870 5869 5869 5868 5867 5867 5866 5865 5864 5864 5863 5861 5860 5858 5857 5855 5852 5850 5847 5845 5842 5838 5834 5830 5827 5823 5819 5816 5813 5812
5844 5849 5853 5856 5859 5861 5863 5865 5867 5868 5869 5870 5870 5870 5870 5870 5870 5870 5869 5869 5868 5868 5867 5866 5866 5865 5864 5863 5862 5861 5860 5859 5857 5855 5853 5851 5849 5846 5844 5841 5837 5833 5829 5826 5822 5818 5815 5812 5810
5843 5848 5851 5855 5858 5861 5863 5865 5866 5867 5868 5869 5869 5870 5869 5869 5869 5869 5868 5868 5867 5867 5866 5865 5865 5864 5863 5862 5861 5860 5859 5857 5856 5854 5852 5850 5848 5845 5843 5840 5836 5833 5829 5825 5821 5817 5814 5811 5809
5844 5848 5852 5855 5858 5860 5862 5864 5865 5866 5867 5868 5868 5869 5869 5868 5868 5868 5867 5867 5866 5866 5865 5864 5863 5862 5861 5860 5860 5859 5857 5856 5854 5853 5851 5849 5846 5844 5841 5839 5835 5832 5828 5824 5821 5817 5814 5811 5809
5844 5848 5851 5855 5858 5860 5862 5863 5864 5866 5867 5867 5868 5868 5868 5867 5867 5867 5866 5866 5865 5865 5864 5863 5862 5861 5860 5859 5858 5857 5856 5855 5853 5851 5850 5848 5845 5843 5840 5837 5834 5831 5828 5824 5820 5817 5814 5811 5809
5844 5847 5851 5855 5858 5860 5862 5863 5864 5865 5866 5867 5867 5867 5866 5866 5866 5865 5865 5865 5864 5864 5863 5862 5861 5860 5859 5858 5857 5856 5855 5853 5851 5850 5848 5846 5844 5842 5839 5836 5833 5830 5827 5824 5820 5817 5814 5812 5809
5845 5848 5852 5855 5858 5860 5862 5863 5864 5864 5865 5866 5866 5865 5865 5865 5864 5864 5864 5864 5863 5862 5862 5861 5860 5859 5858 5857 5856 5855 5853 5852 5850 5848 5847 5845 5843 5841 5838 5836 5833 5830 5827 5824 5820 5817 5815 5812 5810
5845 5849 5853 5855 5857 5859 5861 5863 5863 5863 5864 5865 5865 5865 5864 5864 5864 5863 5863 5862 5862 5861 5861 5860 5859 5858 5857 5856 5855 5853 5852 5850 5849 5847 5845 5844 5842 5840 5837 5835 5832 5829 5826 5823 5821 5818 5815 5813 5811
5845 5849 5853 5855 5857 5859 5860 5861 5863 5863 5863 5864 5864 5864 5863 5863 5863 5862 5862 5861 5861 5860 5860 5859 5858 5857 5856 5854 5853 5852 5850 5849 5847 5846 5844 5842 5840 5838 5836 5834 5831 5829 5826 5823 5821 5818 5815 5813 5811
5844 5847 5850 5854 5856 5858 5859 5860 5862 5862 5862 5863 5863 5863 5863 5862 5862 5861 5861 5860 5860 5860 5859 5858 5857 5856 5855 5853 5852 5850 5849 5847 5845 5844 5842 5840 5838 5836 5834 5832 5830 5827 5825 5822 5820 5818 5815 5813 5811
5844 5847 5850 5852 5854 5857 5858 5859 5860 5861 5861 5862 5862 5862 5861 5861 5861 5860 5860 5860 5859 5858 5858 5857 5856 5855 5854 5852 5850 5849 5847 5845 5843 5842 5840 5838 5836 5834 5832 5830 5828 5826 5824 5821 5819 5816 5814 5812 5810
5846 5848 5849 5851 5854 5856 5857 5859 5859 5860 5860 5860 5860 5860 5860 5860 5859 5859 5859 5858 5858 5857 5856 5856 5855 5853 5852 5851 5849 5847 5845 5843 5841 5840 5838 5836 5834 5831 5829 5827 5825 5823 5821 5819 5817 5815 5812 5810 5808
5844 5847 5849 5852 5853 5855 5856 5859 5857 5858 5858 5859 5859 5859 5858 5858 5858 5858 5858 5857 5856 5856 5855 5854 5853 5852 5850 5849 5847 5845 5843 5841 5839 5837 5835 5833 5831 5829 5827 5825 5822 5820 5818 5816 5814 5812 5810 5808 5806